Regional Weather Roundup
Issued by NWS

Home | Current Version | Previous Version | Text Only | Print | Product List | Glossary Off
Versions: 1 2 3 4 5 6 7 8 9 10 11 12 13 14 15 16 17 18 19 20 21 22 23 24 25 26 27 28 29 30 31 32 33 34 35 36 37 38 39 40 41 42 43 44 45 46 47 48 49 50

000
ASUS43 KFSD 121310
RWRSD

WEATHER ROUNDUP FOR SOUTH DAKOTA
NATIONAL WEATHER SERVICE SIOUX FALLS SD
800 AM CDT SAT JUL 12 2014

NOTE: "FAIR" INDICATES FEW OR NO CLOUDS BELOW 12,000 FEET WITH NO
SIGNIFICANT WEATHER AND/OR OBSTRUCTIONS TO VISIBILITY.


SDZ001>005-009-010-012>017-121400-
NORTHWEST AND NORTH CENTRAL SOUTH DAKOTA

CITY           SKY/WX    TMP DP  RH WIND       PRES   REMARKS
BUFFALO          N/A     61  59  93 E6        30.09S
FAITH            N/A     62  60  93 E14       30.13F
MOBRIDGE       RAIN      64  63  96 N7        30.11S FOG
$$

SDZ012>016-024>037-041>051-057-063-072>074-121400-
SOUTHWEST AND SOUTH CENTRAL SOUTH DAKOTA

CITY           SKY/WX    TMP DP  RH WIND       PRES   REMARKS
RAPID CTY ARPT PTSUNNY   61  59  93 N10       30.16R
PIERRE         LGT RAIN  64  62  93 NE12      30.08R
CUSTER         SUNNY     57  53  86 CALM      30.26R
PHILIP         MOSUNNY   65  60  84 NE9       30.12R
PINE RIDGE     CLOUDY    63  61  93 CALM      30.16R
WINNER         CLOUDY    70  66  87 N10       30.07R
$$

SDZ004>011-016>023-039-040-121400-
NORTHEAST SOUTH DAKOTA

CITY           SKY/WX    TMP DP  RH WIND       PRES   REMARKS
ABERDEEN       CLOUDY    65  59  81 N5        30.08R
WATERTOWN      TSTM      65  59  81 SW10      30.08R
SISSETON         N/A     66  60  81 N8        30.03S
$$

SDZ017-020-022-023-036>040-048>070-121400-
SOUTHEAST SOUTH DAKOTA

CITY           SKY/WX    TMP DP  RH WIND       PRES   REMARKS
SIOUX FALLS    CLOUDY    71  67  87 NW13      30.03R
HURON          RAIN      66  32  28 SE3       30.05R
CHAMBERLAIN    CLOUDY    69  66  92 N10       30.07R
MITCHELL       CLOUDY    70  65  84 N9        30.05R
$$

ABBREVIATIONS USED IN REMARKS
   TC - TEMPERATURE IN CELSIUS
  WCI - WIND CHILL INDEX
   HX - HEAT INDEX
  VSB - VISIBILITY




USA.gov is the U.S. government's official web portal to all federal, state and local government web resources and services.